Location: Beyler
(36.6560°N, 29.8619°E)
Time: 00:26:05
(UTC+00:00)

Daily predictions for brighter satellites

Satellite Brightness Start Highest point End
(mag) Time Altitude Azimuth Time Altitude Azimuth Time Altitude Azimuth
CZ-3 Stage 3 4.0 01:27:11 65° SSE 01:27:11 65° SSE 01:52:44 10° E
CZ-3 R/B 3.8 01:45:41 52° WSW 01:49:54 59° SSW 01:59:36 10° SE
Cosmos 2082 Rocket 3.2 02:07:34 40° ENE 02:07:34 40° ENE 02:11:28 10° NNE
Cosmos 2279 Rocket 3.9 02:29:48 56° N 02:31:17 85° E 02:37:32 10° S
Cosmos 1980 Rocket 2.4 02:32:25 58° NNE 02:33:13 65° ENE 02:38:44 10° SSE
Cosmos 2098 Rocket 3.7 02:38:52 46° N 02:40:42 83° E 02:46:27 10° S
Cosmos 220 Rocket 4.1 02:51:55 62° SE 02:52:09 64° ESE 02:56:12 10° NNE
Tiangong 0.0 02:55:00 26° ENE 02:55:00 26° ENE 02:56:45 10° E
SJ-11-01 4.1 02:50:25 10° N 02:55:08 82° WNW 02:59:47 10° SSW
Cosmos 372 Rocket 4.4 02:53:44 26° N 02:56:27 58° ENE 03:01:25 10° SSE
Cosmos 990 Rocket 4.4 03:05:11 42° SW 03:05:11 42° SW 03:09:25 10° S
Cosmos 2142 Rocket 4.4 03:02:15 15° NNW 03:07:25 66° W 03:13:30 10° S
Cosmos 1606 Rocket 3.8 03:06:09 16° N 03:09:37 67° E 03:13:58 10° SSE
SL-8 R/B 3.7 03:12:41 53° W 03:13:35 65° SW 03:18:17 10° SE
Cosmos 1697 Rocket 4.3 03:17:16 17° SW 03:17:16 17° SW 03:19:09 10° SSW
Helios 1A Rocket 3.7 03:16:12 10° SE 03:19:20 39° ENE 03:22:13 12° N
Cosmos 1092 Rocket 4.4 03:16:42 10° S 03:22:54 64° E 03:29:06 10° NNE
Meteor 2-3 Rocket 3.7 03:19:32 10° S 03:25:18 85° W 03:31:02 10° N
Cosmos 489 Rocket 4.5 03:21:04 10° SSW 03:27:14 56° WNW 03:33:25 10° N
Cosmos 2322 Rocket 4.3 03:22:54 10° N 03:27:15 22° ENE 03:31:33 10° ESE
Nadezhda 4 Rocket 4.1 03:21:47 10° SSW 03:27:57 54° W 03:34:07 10° N
Cosmos 1428 Rocket 4.4 03:23:00 10° SSW 03:29:06 65° W 03:35:20 10° N
NOSS 2-1 (D) 3.8 03:32:00 22° NNW 03:34:32 68° ENE 03:39:49 10° SE
Cosmos 1726 Rocket 3.3 03:31:44 10° N 03:36:05 83° W 03:40:14 10° S
USA 59 Rocket 0.2 03:34:44 22° NNW 03:37:17 81° ENE 03:42:45 10° SE
COSMOS 2406 3.4 03:33:00 10° SW 03:38:28 48° WNW 03:43:56 10° N
CZ-4 R/B 4.0 03:34:55 10° N 03:39:19 45° WNW 03:43:41 10° SW
Cosmos 2237 4.2 03:33:42 10° NNW 03:39:20 88° ENE 03:45:01 10° SSE
SL-24 R/B - RUBIN 2 4.2 03:38:33 29° W 03:39:47 35° WSW 03:43:49 10° S
Cosmos 841 Rocket 4.0 03:35:13 10° SW 03:39:59 36° WNW 03:44:49 10° N
NOSS 3-1 (C) 4.4 03:34:05 10° NNW 03:41:35 75° ENE 03:50:48 10° SE
NOSS 2-1 (E) 3.9 03:39:18 17° NNW 03:42:17 63° ENE 03:47:29 10° SE
Cosmos 2195 Rocket 4.5 03:36:12 10° SSW 03:42:22 64° W 03:48:38 10° N
BREEZE-M DEB (TANK) 3.3 03:44:06 19° WNW 03:48:33 76° SW 03:51:44 10° SE
Cosmos 1892 Rocket 3.7 03:45:33 10° SSW 03:49:43 48° W 03:53:59 10° N
Cosmos 2082 Rocket 3.3 03:49:32 20° WNW 03:50:23 20° NW 03:54:29 10° N
Cosmos 1933 4.1 03:52:07 22° WNW 03:53:24 26° W 03:56:36 10° SSW
SL-16 R/B 2.6 03:48:27 10° NNW 03:54:06 64° ENE 03:59:42 10° SSE
NOSS 2-1 (C) 3.6 03:58:58 14° NW 04:02:19 69° WSW 04:07:43 10° SSE
COSMOS 2455 3.2 03:58:09 11° NW 04:03:40 48° WSW 04:09:23 10° S
Meteor 2-20 4.4 03:58:52 10° NNW 04:04:55 67° W 04:10:54 10° S
IRS-1D 4.5 04:01:03 10° NNW 04:05:00 24° WNW 04:09:00 10° WSW
Cosmos 1898 Rocket 4.1 04:02:31 10° NW 04:07:15 35° W 04:11:59 10° SSW
Cosmos 405 Rocket 2.3 04:09:37 10° S 04:12:50 81° E 04:16:06 10° N
USA 267 4.4 04:09:04 10° NE 04:15:21 49° SE 04:21:37 10° SSW
Cosmos 1980 Rocket 3.8 04:14:14 11° WNW 04:16:31 14° W 04:19:21 10° SW
Cosmos 2278 3.8 04:11:30 10° NNW 04:17:11 87° ENE 04:22:49 10° SSE
COSMO-SKYMED 1 3.3 04:13:55 10° SSW 04:17:29 29° W 04:21:06 10° NW
Cosmos-2242 3.0 04:16:53 10° NNW 04:21:03 58° W 04:25:08 10° S
ATLAS 2AS CENTAUR R/B 3.3 04:17:19 10° SSW 04:24:21 65° ESE 04:31:13 10° NE
Delta 2 Rocket 3.9 04:21:52 10° W 04:24:33 28° SSW 04:27:10 10° SE
Cosmos 1602 Rocket 4.3 04:20:17 10° S 04:24:37 59° E 04:28:59 10° NNE
Meteor 2-2 Rocket 4.3 04:19:29 10° NNW 04:25:06 62° W 04:30:49 10° S
Meteor 2-20 Rocket 4.3 04:21:24 10° NNW 04:27:03 61° W 04:32:38 10° S
Cosmos 2058 Rocket 3.4 04:23:08 10° NNW 04:27:22 45° W 04:31:32 10° SSW
SL-08 ROCKET BODY 4.3 04:23:27 10° S 04:29:18 76° W 04:35:09 10° N
Cosmos 1484 Rocket 3.6 04:27:27 10° NNW 04:30:07 22° WNW 04:32:46 10° WSW
Tiangong -1.7 04:27:35 10° WNW 04:30:45 55° SSW 04:33:55 10° SE
BREEZE-M DEB (TANK) 2.6 04:28:20 10° WSW 04:30:53 47° NW 04:33:20 10° NE
Cosmos 1937 Rocket 4.4 04:27:34 10° NW 04:31:52 28° W 04:36:10 10° SSW
Cosmos 2285 Rocket 4.5 04:25:57 10° NNW 04:32:19 68° ENE 04:38:41 10° SSE
CORIOLIS 4.1 04:28:18 10° N 04:33:41 77° WNW 04:39:03 10° SSW
IRIDIUM 104 4.4 04:29:18 10° SSW 04:34:24 58° W 04:39:34 10° N
ARIANE 5 R/B 2.8 04:30:59 10° NNE 04:36:14 81° ESE 04:41:26 10° S
